Regional Weather Roundup
Issued by NWS

Home | Current Version | Previous Version | Graphics & Text | Print | Product List | Glossary On
Versions: 1 2 3 4 5 6 7 8 9 10 11 12 13 14 15 16 17 18 19 20 21 22 23 24 25 26 27 28 29 30 31 32 33 34 35 36 37 38 39 40 41 42 43 44 45 46 47 48 49 50
000
ASUS43 KLMK 281202
RWRKY
KENTUCKY REGIONAL WEATHER ROUNDUP
NATIONAL WEATHER SERVICE LOUISVILLE KY
800 AM EDT TUE JUL 28 2015

NOTE "FAIR" INDICATES FEW OR NO CLOUDS BELOW 12,000 FEET
WITH NO SIGNIFICANT WEATHER AND/OR OBSTRUCTIONS TO VISIBILITY.

KYZ001>023-026-027-061>063-070>075-281300-
WESTERN AND SOUTH CENTRAL KENTUCKY

CITY           SKY/WX    TMP DP  RH WIND       PRES   REMARKS
PADUCAH        MOSUNNY   78  75  90 CALM      29.96R FOG
HENDERSON      PTSUNNY   73  72  94 CALM      29.96S
OWENSBORO      MOSUNNY   76  73  90 CALM      29.98S FOG
HOPKINSVILLE   SUNNY     76  73  90 CALM      29.98R
BOWLING GREEN  MOSUNNY   76  73  91 E3        30.00R
GLASGOW        NOT AVBL
$$

KYZ024-025-028>034-038-045-046-053-281300-
NORTH CENTRAL KENTUCKY

CITY           SKY/WX    TMP DP  RH WIND       PRES   REMARKS
LOUISVILLE/SDF CLOUDY    79  75  87 E3        29.98R FOG
LOUISVILLE/LOU CLOUDY    79  74  84 CALM      29.99R
FORT KNOX      PTSUNNY   75  73  96 CALM      29.98S FOG
$$

KYZ035>037-039>044-047>052-055>060-089>105-281300-
NORTHEAST KENTUCKY

CITY           SKY/WX    TMP DP  RH WIND       PRES   REMARKS
LEXINGTON      MOSUNNY   74  73  97 SW3       30.01R FOG
COVINGTON      PTSUNNY   75  73  93 E5        30.01R FOG
FRANKFORT      PTSUNNY   76  71  85 CALM      30.00R
$$

KYZ054-064>069-076>088-106>120-281300-
SOUTHEAST KENTUCKY

CITY           SKY/WX    TMP DP  RH WIND       PRES   REMARKS
JACKSON        FOG       72  71  97 CALM      30.04R VSB<1/4
LONDON         MOSUNNY   72  68  87 CALM      30.04R
SOMERSET       NOT AVBL
MIDDLESBORO    FOG       70  70 100 CALM      30.06S VSB 1/2
MONTICELLO     MOSUNNY   74  74 100 CALM      30.04S FOG
$$




USA.gov is the U.S. government's official web portal to all federal, state and local government web resources and services.